Weather History for CWZG - February, 2013

Change the Weather History Date:

Sunday, February 17, 2013

  Actual Average Record
Temperature  
Mean Temperature 26 °F -  
Max Temperature 30 °F - - ()
Min Temperature 22 °F - - ()
Degree Days  
Heating Degree Days 39    
Moisture  
Dew Point 23 °F    
Average Humidity 86    
Maximum Humidity 94    
Minimum Humidity 72    
Precipitation  
Precipitation 0.22 in - - ()
Sea Level Pressure  
Sea Level Pressure 29.95 in    
Wind  
Wind Speed 2 mph ()    
Max Wind Speed 5 mph    
Max Gust Speed -    
T = Trace of Precipitation, MM = Missing Value Source: Averaged Metar Reports

Daily Weather History Graph

Daily Weather History Graph

Search for Another Location

Airport or City:

Trip Planner

Search our weather history database for the weather conditions in past years. The results will help you decide how hot, cold, wet, or windy it might be!

Date:

Astronomy

Feb. 17, 2013 Rise Set
Actual Time 7:50 AM MST 6:02 PM MST
Civil Twilight 7:16 AM MST 6:36 PM MST
Nautical Twilight 6:38 AM MST 7:15 PM MST
Astronomical Twilight 5:59 AM MST 7:53 PM MST
Moon 10:52 AM MST (2/17) 1:54 AM MST (2/17)
Length of Visible Light 11h 19m
Length of Day
10h 11m
Waxing Crescent, 49% of the Moon is Illuminated
Feb 17
Waxing Crescent
Feb 17
First Quarter
Feb 25
Full
Mar 4
Last Quarter
Mar 11
New

Hourly Weather History & Observations

Time (MST) Temp. Windchill Dew Point Humidity Pressure Visibility Wind Dir Wind Speed Gust Speed Precip Events Conditions
12:00 AM 30.0 °F 25.2 °F 23.4 °F 76% 29.75 in - SW 4.6 mph - N/A   Unknown
1:00 AM 29.7 °F - 23.9 °F 79% 29.78 in - ENE 1.2 mph - N/A   Unknown
2:00 AM 28.6 °F - 25.9 °F 90% 29.80 in - SSW 1.2 mph - 0.02 in   Unknown
3:00 AM 28.2 °F - 26.4 °F 93% 29.81 in - SW 2.3 mph - 0.02 in   Unknown
4:00 AM 28.0 °F - 26.4 °F 94% 29.82 in - SW 2.3 mph - 0.01 in   Unknown
5:00 AM 27.1 °F - 25.3 °F 93% 29.84 in - SW 2.3 mph - N/A   Unknown
6:00 AM 26.4 °F - 24.8 °F 94% 29.86 in - SW 2.3 mph - N/A   Unknown
7:00 AM 26.4 °F - 24.4 °F 92% 29.88 in - WSW 1.2 mph - N/A   Unknown
8:00 AM 27.1 °F 23.2 °F 24.8 °F 91% 29.89 in - NNE 3.5 mph - 0.02 in   Unknown
9:00 AM 26.6 °F - 24.3 °F 91% 29.92 in - NE 1.2 mph - 0.02 in   Unknown
10:00 AM 27.7 °F - 24.3 °F 87% 29.94 in - North 1.2 mph - N/A   Unknown
11:00 AM 28.8 °F - 23.2 °F 80% 29.94 in - NE 1.2 mph - N/A   Unknown
12:00 PM 30.0 °F - 22.1 °F 72% 29.95 in - ESE 2.3 mph - N/A   Unknown
1:00 PM 28.0 °F 22.8 °F 20.3 °F 73% 29.97 in - SSE 4.6 mph - N/A   Unknown
2:00 PM 27.9 °F - 21.0 °F 75% 29.98 in - West 1.2 mph - N/A   Unknown
3:00 PM 27.0 °F - 21.4 °F 79% 30.01 in - WSW 2.3 mph - N/A   Unknown
4:00 PM 27.0 °F - 20.5 °F 77% 30.02 in - SW 2.3 mph - N/A   Unknown
5:00 PM 26.1 °F - 21.7 °F 84% 30.04 in - NW 2.3 mph - 0.01 in   Unknown
6:00 PM 25.0 °F - 22.8 °F 91% 30.06 in - NNE 2.3 mph - 0.05 in   Unknown
7:00 PM 23.7 °F 19.3 °F 21.2 °F 90% 30.09 in - NE 3.5 mph - 0.02 in   Unknown
8:00 PM 23.5 °F 17.6 °F 21.2 °F 91% 30.10 in - NNE 4.6 mph - 0.05 in   Unknown
9:00 PM 23.4 °F - 20.1 °F 87% 30.10 in - NE 2.3 mph - N/A   Unknown
10:00 PM 22.6 °F - 19.9 °F 89% 30.11 in - East 1.2 mph - N/A   Unknown
11:00 PM 22.3 °F - 19.8 °F 90% 30.10 in - ENE 2.3 mph - N/A   Unknown